{"data":{"norad_id":47824,"intl_designator":"2021-018AP","name":"STARLINK-2409","alt_names":[],"object_type":"PAYLOAD","status":"ACTIVE","operator":null,"country":"US","launch_date":"2021-03-11","launch_site_code":"AFETR","launch_vehicle":null,"mission":null,"orbit_class":"UNKNOWN","rcs_meters":null,"size_class":null,"mass_kg":null,"dimensions":null,"purposes":["comms"],"wikipedia_slug":null,"has_3d_model":false,"image_url":null,"decayed_at":null,"tle_current":{"epoch":"2026-05-25T00:55:19.922592Z","epoch_age_seconds":67906,"freshness":"FRESH","line1":"1 47824U 21018AP  26145.03842503 -.00000163  00000+0  66305-5 0  9995","line2":"2 47824  53.1601 263.1534 0001051  85.0667 275.0453 15.30193503288189","mean_motion":15.30193503,"eccentricity":0.0001051,"inclination_deg":53.1601,"raan_deg":263.1534,"arg_perigee_deg":85.0667,"mean_anomaly_deg":275.0453,"bstar":6.6305e-6,"rev_number":28818,"period_min":94.105745265342,"perigee_km":474.51417901755,"apogee_km":475.95475770019,"semimajor_km":6853.3714683589,"source":"CELESTRAK","updated_at":"2026-05-25T13:38:16.604208Z"}}}